Home   Weather   Mamoutzou   Past weeks

Flag for Mayotte Past Weather in Mamoutzou, Mayotte — Yesterday and Last 2 Weeks

Now
77 °F

Mostly cloudy.


Feels Like: 78 °F
Forecast: 80 / 85 °F
Wind: 3 mph from North

Location: Dzaoudzi / Pamanzi Mayotte

Current Time: Feb 27, 2017 at 12:25:26 am

Latest Report: Feb 27, 2017 at 12:00 am


Visibility: N/A

Pressure: 29.83 "Hg

Humidity: 89%

Dew Point: 73 °F

Location of MamoutzouLocation

Past Weather in Mamoutzou — Graph

°F

Mamoutzou Temperature Yesterday

Maximum temperature yesterday: 88 °F (at 11:00 am)
Minimum temperature yesterday: 75 °F (at 4:30 pm)
Average temperature yesterday: 81 °F

High & Low Weather Summary for the Past Weeks

 TemperatureHumidityPressure
High91 °F (Feb 16, 12:00 pm)94% (Feb 21, 4:30 am)29.98 "Hg (Feb 21, 4:30 am)
Low75 °F (Feb 12, 10:00 am)59% (Feb 15, 2:30 pm)29.77 "Hg (Feb 20, 3:30 pm)
Average82 °F77%29.88 "Hg
* Reported Feb 11 11:00 pm — Feb 26 11:00 pm, Mamoutzou, Weather by CustomWeather, © 2017

Note: Actual official high and low records may vary slightly from our data, if they occured in-between our weather recording intervals... More about our weather records

Advertising

Mamoutzou Weather History for the Previous 24 Hours

Scroll right to see more
 ConditionsComfort  
Time TempWeatherWind HumidityBarometerVisibility
11:00 pm
Sun, Feb 26
77 °FPassing clouds.5 mph89%29.83 "HgN/A
10:30 pm79 °FWarm.6 mph84%29.83 "HgN/A
10:00 pm79 °FWarm.5 mph84%29.83 "HgN/A
9:30 pm79 °FPassing clouds.6 mph84%29.83 "HgN/A
9:00 pm77 °FPassing clouds.3 mph89%29.83 "HgN/A
8:30 pm79 °FLight rain. Overcast.6 mph84%29.83 "HgN/A
8:00 pm77 °FMostly cloudy.6 mph89%29.83 "HgN/A
7:30 pm77 °FPassing clouds.7 mph89%29.83 "HgN/A
7:00 pm77 °FMostly cloudy.6 mph89%29.83 "HgN/A
6:00 pm77 °FMore clouds than sun.7 mph89%29.80 "HgN/A
5:30 pm75 °FLight rain. More clouds than sun.10 mph94%29.80 "HgN/A
5:00 pm75 °FSprinkles. Partly sunny.15 mph89%29.80 "HgN/A
4:42 pm75 °FSprinkles. Partly sunny.15 mph89%29.80 "Hg4 mi
4:30 pm75 °FRain showers. Partly sunny.12 mph94%29.80 "Hg1 mi
4:00 pm77 °FRain showers. Partly sunny.16 mph89%29.80 "Hg1 mi
3:30 pm82 °FRain showers. Partly sunny.13 mph74%29.80 "HgN/A
3:00 pm86 °FBroken clouds.12 mph75%29.80 "HgN/A
2:30 pm84 °FBroken clouds.10 mph74%29.80 "HgN/A
2:00 pm86 °FScattered showers. Scattered clouds.13 mph66%29.80 "HgN/A
1:30 pm88 °FPartly sunny.13 mph70%29.80 "HgN/A
1:00 pm88 °FScattered showers. Scattered clouds.13 mph66%29.83 "HgN/A
12:30 pm88 °FScattered clouds.12 mph66%29.83 "HgN/A
12:00 pm88 °FScattered clouds.12 mph66%29.86 "HgN/A
11:30 am88 °FBroken clouds.12 mph66%29.86 "HgN/A
11:00 am88 °FBroken clouds.10 mph66%29.89 "HgN/A
10:30 am86 °FScattered clouds.10 mph66%29.89 "HgN/A
10:00 am86 °FScattered showers. Scattered clouds.10 mph70%29.89 "HgN/A
9:30 am82 °FScattered showers. Scattered clouds.9 mph74%29.89 "HgN/A
9:00 am84 °FScattered showers. Scattered clouds.12 mph74%29.89 "HgN/A
8:30 am84 °FScattered showers. Scattered clouds.13 mph74%29.92 "HgN/A
8:00 am82 °FScattered showers. Scattered clouds.12 mph79%29.89 "HgN/A
7:30 am82 °FScattered clouds.7 mph79%29.89 "HgN/A
7:00 am81 °FScattered clouds.6 mph79%29.89 "HgN/A
6:30 am79 °FBroken clouds.5 mph84%29.86 "HgN/A
6:00 am79 °FScattered clouds.5 mph84%29.86 "HgN/A
5:30 am81 °FPassing clouds.7 mph79%29.83 "HgN/A
5:00 am81 °FPassing clouds.9 mph79%29.83 "HgN/A
4:30 am81 °FPassing clouds.13 mph79%29.86 "HgN/A
4:00 am81 °FPassing clouds.14 mph79%29.86 "HgN/A
3:30 am81 °FPassing clouds.14 mph79%29.83 "HgN/A
3:00 am81 °FPartly cloudy.15 mph79%29.83 "HgN/A
2:30 am81 °FPassing clouds.14 mph84%29.86 "HgN/A
2:00 am81 °FOvercast.14 mph79%29.86 "HgN/A
1:30 am82 °FMostly cloudy.20 mph74%29.89 "HgN/A
1:00 am81 °FWarm.14 mph84%29.89 "HgN/A
12:30 am81 °FPartly cloudy.14 mph79%29.89 "HgN/A
12:00 am81 °FPassing clouds.14 mph84%29.89 "HgN/A
Weather by CustomWeather, © 2017

See weather overviewHow to use our weather pages